Location: Boitzum
(52.1496°N, 9.6943°E)
Time: 05:44:25
(UTC+00:00)

Cosmos 2074 Rocket - Pass Details

Date: 24 April 2026
Orbit: 967 x 984 km, 82.9° (Epoch: 15 May)

Event Time Altitude Azimuth Distance (km) Brightness Sun altitude
Rises 02:24:33 0° 355° (N) 3,706 7.6 -13.8°
Reaches altitude 10° 02:28:07 10° 15° (NNE) 2,754 7.3 -13.4°
Maximum altitude 02:32:08 17° 55° (NE) 2,259 7.1 -12.9°
Drops below altitude 10° 02:36:09 10° 95° (E) 2,743 7.0 -12.5°
Sets 02:39:40 0° 115° (ESE) 3,685 7.4 -12.0°
